Location: Daerah Kuala Lumpur
(3.1167°N, 101.6833°E)
Time: 20:00:48
(UTC+00:00)

CZ-4C R/B - Pass Details

Date: 18 November 2024
Orbit: 514 x 1473 km, 63.4° (Epoch: 13 December)

Event Time Altitude Azimuth Distance (km) Brightness Sun altitude
Rises 14:00:13 0° 298° (WNW) 4,521 6.4 -43.5°
Reaches altitude 10° 14:05:09 10° 275° (W) 3,598 5.9 -44.7°
Maximum altitude 14:09:14 14° 248° (WSW) 3,301 5.7 -45.6°
Drops below altitude 10° 14:13:18 10° 220° (SW) 3,554 5.9 -46.5°
Sets 14:18:12 0° 196° (SSW) 4,423 6.3 -47.6°
